Regional Weather Roundup
Issued by NWS

Home | Current Version | Previous Version | Graphics & Text | Print | Product List | Glossary Off
Versions: 1 2 3 4 5 6 7 8 9 10 11 12 13 14 15 16 17 18 19 20 21 22 23 24 25 26 27 28 29 30 31 32 33 34 35 36 37 38 39 40 41 42 43 44 45 46 47 48 49 50

000
ASUS43 KLSX 181707
RWRMO

WEATHER SUMMARY FOR MISSOURI
NATIONAL WEATHER SERVICE SPRINGFIELD MO
1100 AM CST SUN FEB 18 2018

NOTE: "FAIR" INDICATES FEW OR NO CLOUDS BELOW 12,000 FEET WITH NO
       SIGNIFICANT WEATHER AND/OR OBSTRUCTIONS TO VISIBILITY.
       CURRENT SKY AND/OR WEATHER CONDITIONS ARE NOT AVAILABLE FOR
       CHILLICOTHE AND FARMINGTON.

MOZ001>031-035>038-043-044-053-054-181800-
...NORTHERN AND WESTERN MISSOURI...

CITY           SKY/WX    TMP DP  RH WIND       PRES   REMARKS
KANSAS CTY INT PTSUNNY   50  25  37 S20G28    29.97F
KANSAS C DTWN  CLOUDY    51  26  37 S17G26    30.01F
LEE`S SUMMIT   MOSUNNY   48  30  49 S28G38    30.01F
ST JOSEPH      MOSUNNY   51  24  34 S28G38    29.93F
CHILLICOTHE      N/A     48  29  47 S23G36    30.01F
KIRKSVILLE     CLOUDY    46  28  49 S23       30.05F

$$
MOZ066>068-077>081-088>096-101>105-181800-
...SOUTHWEST MISSOURI...

CITY           SKY/WX    TMP DP  RH WIND       PRES   REMARKS
SPRINGFIELD    MOSUNNY   44  34  67 S25G32    30.09F
JOPLIN         CLOUDY    48  30  49 S15G28    30.07F
BRANSON        CLOUDY    45  34  65 SE18G26   30.15F

$$
MOZ032>034-039>042-045>050-055>058-069>072-181800-
...CENTRAL MISSOURI...

CITY           SKY/WX    TMP DP  RH WIND       PRES   REMARKS
COLUMBIA       MOSUNNY   49  31  49 S20G26    30.12F
JEFFERSON CITY MOSUNNY   48  31  51 S22G33    30.14F
ROLLA          MOSUNNY   45  33  63 SE20G29   30.15F
SEDALIA        PTSUNNY   52  33  48 S21G32    30.08F
WHITEMAN AFB   MOSUNNY   48  30  49 S25G31    30.01F
WARRENSBURG    CLOUDY    48  32  53 S16G24    30.05F
OSAGE BEACH    MOSUNNY   47  35  63 S15G23    30.14F

$$
MOZ051-052-059>065-181800-
...EAST CENTRAL MISSOURI...

CITY           SKY/WX    TMP DP  RH WIND       PRES   REMARKS
ST LOUIS INTL  PTSUNNY   47  30  51 SE13      30.22F
SPIRIT OF STL  CLOUDY    48  28  46 SE8G22    30.21F
ST CHARLES     CLOUDY    46  32  58 SE18      30.21F

$$
MOZ072>076-082>087-097>100-106>115-181800-
...SOUTH CENTRAL AND SOUTHEAST MISSOURI...

CITY           SKY/WX    TMP DP  RH WIND       PRES   REMARKS
CAPE GIRARDEAU FAIR      46  37  71 SE12      30.27F
FARMINGTON     MOSUNNY   46  33  60 S13G22    30.23F
POPLAR BLUFF   FAIR      45  39  79 E8        30.26F
WEST PLAINS    CLOUDY    43  34  70 SE15G23   30.21S

$$



USA.gov is the U.S. government's official web portal to all federal, state and local government web resources and services.